Weather History for Olean, NY

Change the Weather History Date:

Wednesday, October 10, 2012

  Actual Average (KBFD) Record (KBFD)
Temperature  
Mean Temperature 42 °F 48 °F  
Max Temperature 50 °F 59 °F 78 °F (1990)
Min Temperature 35 °F 37 °F 20 °F (1972)
Degree Days  
Heating Degree Days 22 12  
Month to date heating degree days 111  
Since 1 July heating degree days 528  
Cooling Degree Days 0 0  
Month to date cooling degree days 0  
Year to date cooling degree days 192  
Moisture  
Dew Point 38 °F    
Average Humidity 87    
Maximum Humidity 100    
Minimum Humidity 70    
Precipitation  
Precipitation 0.00 in 0.12 in 0.80 in (1970)
Month to date precipitation 1.20  
Year to date precipitation 35.07  
Sea Level Pressure  
Sea Level Pressure 29.89 in    
Wind  
Wind Speed 7 mph ()    
Max Wind Speed 13 mph    
Max Gust Speed 22 mph    
Visibility 9.2 miles    
Events Rain    
T = Trace of Precipitation, MM = Missing Value Source: Averaged Metar Reports

Daily Weather History Graph

Daily Weather History Graph

Search for Another Location

Airport:

Trip Planner

Search our weather history database for the weather conditions in past years. The results will help you decide how hot, cold, wet, or windy it might be!

Date:

Astronomy

Oct. 10, 2012 Rise Set
Actual Time 7:21 AM EDT 6:38 PM EDT
Civil Twilight 6:52 AM EDT 7:07 PM EDT
Nautical Twilight 6:20 AM EDT 7:39 PM EDT
Astronomical Twilight 5:47 AM EDT 8:11 PM EDT
Moon 1:49 AM EDT (10/10) 3:45 PM EDT (10/10)
Length of Visible Light 12h 14m
Length of Day
11h 17m
Waning Crescent, 27% of the Moon is Illuminated
Oct 10
Waning Crescent
Oct 15
New
Oct 21
First Quarter
Oct 29
Full
Nov 6
Last Quarter

Hourly Weather History & Observations

Time (EDT) Temp. Windchill Dew Point Humidity Pressure Visibility Wind Dir Wind Speed Gust Speed Precip Events Conditions
12:15 AM 44.6 °F 40.7 °F 39.2 °F 81% 29.97 in 10.0 mi South 6.9 mph - N/A   Clear
12:35 AM 42.8 °F 38.6 °F 37.4 °F 81% 29.97 in 10.0 mi South 6.9 mph - N/A   Clear
12:55 AM 42.8 °F 38.6 °F 39.2 °F 87% 29.96 in 10.0 mi SSW 6.9 mph - N/A   Clear
1:15 AM 42.8 °F 38.6 °F 39.2 °F 87% 29.95 in 10.0 mi SSW 6.9 mph - N/A   Clear
1:35 AM 42.8 °F 38.6 °F 39.2 °F 87% 29.95 in 10.0 mi SSW 6.9 mph - N/A   Clear
1:55 AM 42.8 °F 39.3 °F 39.2 °F 87% 29.94 in 10.0 mi SSW 5.8 mph - N/A   Clear
2:15 AM 42.8 °F 39.3 °F 39.2 °F 87% 29.94 in 10.0 mi SSW 5.8 mph - N/A   Clear
2:35 AM 41.0 °F 35.8 °F 39.2 °F 93% 29.93 in 10.0 mi SSW 8.1 mph - N/A   Clear
2:55 AM 42.8 °F 39.3 °F 39.2 °F 87% 29.92 in 10.0 mi SSW 5.8 mph - N/A   Scattered Clouds
3:15 AM 41.0 °F 35.8 °F 39.2 °F 93% 29.91 in 10.0 mi SSW 8.1 mph - N/A   Clear
3:35 AM 41.0 °F 36.4 °F 39.2 °F 93% 29.91 in 10.0 mi SSW 6.9 mph - N/A   Scattered Clouds
3:55 AM 41.0 °F 35.8 °F 37.4 °F 87% 29.90 in 10.0 mi SSW 8.1 mph - N/A   Clear
4:15 AM 41.0 °F 35.8 °F 39.2 °F 93% 29.89 in 10.0 mi SSW 8.1 mph - N/A   Mostly Cloudy
4:35 AM 42.8 °F 37.0 °F 39.2 °F 87% 29.89 in 10.0 mi SSW 10.4 mph - N/A   Overcast
4:55 AM 42.8 °F 38.6 °F 39.2 °F 87% 29.89 in 10.0 mi SSW 6.9 mph - N/A   Overcast
5:15 AM 42.8 °F 40.1 °F 39.2 °F 87% 29.88 in 10.0 mi SSW 4.6 mph - N/A   Overcast
5:35 AM 42.8 °F 39.3 °F 39.2 °F 87% 29.88 in 10.0 mi SSW 5.8 mph - N/A   Overcast
5:55 AM 42.8 °F 38.0 °F 39.2 °F 87% 29.87 in 10.0 mi SSW 8.1 mph - N/A   Overcast
6:15 AM 44.6 °F 39.7 °F 39.2 °F 81% 29.88 in 10.0 mi SW 9.2 mph - N/A   Overcast
6:35 AM 44.6 °F 39.2 °F 39.2 °F 81% 29.87 in 10.0 mi SW 10.4 mph 18.4 mph N/A   Overcast
6:55 AM 42.8 °F 38.0 °F 37.4 °F 81% 29.87 in 10.0 mi SW 8.1 mph 17.3 mph N/A   Overcast
7:15 AM 42.8 °F 37.0 °F 37.4 °F 81% 29.87 in 10.0 mi SSW 10.4 mph 17.3 mph N/A   Scattered Clouds
7:35 AM 42.8 °F 37.0 °F 37.4 °F 81% 29.86 in 10.0 mi SSW 10.4 mph 16.1 mph N/A   Scattered Clouds
7:55 AM 42.8 °F 36.6 °F 37.4 °F 81% 29.85 in 10.0 mi SW 11.5 mph 18.4 mph N/A   Mostly Cloudy
8:15 AM 42.8 °F 36.6 °F 37.4 °F 81% 29.85 in 10.0 mi SSW 11.5 mph - N/A   Overcast
8:55 AM 44.6 °F 39.7 °F 39.2 °F 81% 29.85 in 10.0 mi SSW 9.2 mph - N/A   Overcast
9:35 AM 44.6 °F 39.7 °F 41.0 °F 87% 29.85 in 10.0 mi SSW 9.2 mph - N/A   Overcast
9:55 AM 44.6 °F 38.4 °F 41.0 °F 87% 29.83 in 10.0 mi SSW 12.7 mph 18.4 mph N/A   Overcast
10:15 AM 46.4 °F 41.9 °F 41.0 °F 81% 29.83 in 10.0 mi SSW 9.2 mph 16.1 mph N/A   Mostly Cloudy
10:35 AM 46.4 °F 41.9 °F 41.0 °F 81% 29.82 in 10.0 mi SW 9.2 mph 19.6 mph N/A   Mostly Cloudy
10:55 AM 48.2 °F - 41.0 °F 76% 29.82 in 10.0 mi SSW 10.4 mph 18.4 mph N/A   Mostly Cloudy
11:15 AM 50.0 °F - 41.0 °F 71% 29.81 in 10.0 mi SW 9.2 mph - N/A   Overcast
11:35 AM 50.0 °F - 41.0 °F 71% 29.80 in 10.0 mi SW 6.9 mph 16.1 mph N/A   Overcast
11:55 AM 46.4 °F 41.9 °F 42.8 °F 87% 29.82 in 10.0 mi WSW 9.2 mph - N/A Rain Light Rain
12:15 PM 44.6 °F 40.7 °F 42.8 °F 93% 29.83 in 7.0 mi WSW 6.9 mph - N/A Rain Rain
12:55 PM 42.8 °F 37.5 °F 41.0 °F 93% 29.84 in 7.0 mi WSW 9.2 mph - N/A Rain Rain
1:15 PM 42.8 °F 39.3 °F 41.0 °F 93% 29.83 in 7.0 mi WSW 5.8 mph - N/A Rain Rain
1:35 PM 42.8 °F 37.5 °F 41.0 °F 93% 29.83 in 5.0 mi SW 9.2 mph - N/A   Drizzle
1:55 PM 42.8 °F 40.1 °F 41.0 °F 93% 29.83 in 5.0 mi West 4.6 mph - N/A   Drizzle
2:15 PM 42.8 °F 40.1 °F 41.0 °F 93% 29.83 in 5.0 mi WNW 4.6 mph - N/A Rain Rain
2:35 PM 41.0 °F 35.2 °F 39.2 °F 93% 29.84 in 7.0 mi West 9.2 mph 19.6 mph N/A Rain Light Rain
2:55 PM 41.0 °F 34.7 °F 39.2 °F 93% 29.85 in 10.0 mi WNW 10.4 mph 21.9 mph N/A   Overcast
3:15 PM 41.0 °F 37.1 °F 37.4 °F 87% 29.85 in 10.0 mi West 5.8 mph 17.3 mph N/A   Overcast
3:35 PM 42.8 °F 39.3 °F 37.4 °F 81% 29.86 in 10.0 mi West 5.8 mph 18.4 mph N/A   Overcast
3:55 PM 42.8 °F 38.0 °F 37.4 °F 81% 29.86 in 10.0 mi West 8.1 mph 18.4 mph N/A   Overcast
4:15 PM 44.6 °F 41.4 °F 35.6 °F 71% 29.85 in 10.0 mi West 5.8 mph 21.9 mph N/A   Mostly Cloudy
4:35 PM 44.6 °F 40.2 °F 35.6 °F 71% 29.86 in 10.0 mi West 8.1 mph - N/A   Mostly Cloudy
4:55 PM 42.8 °F 38.6 °F 33.8 °F 70% 29.86 in 10.0 mi West 6.9 mph - N/A   Overcast
5:15 PM 42.8 °F 41.1 °F 33.8 °F 70% 29.87 in 10.0 mi West 3.5 mph - N/A   Overcast
5:35 PM 42.8 °F 40.1 °F 33.8 °F 70% 29.87 in 10.0 mi West 4.6 mph - N/A   Overcast
5:55 PM 39.2 °F 34.2 °F 35.6 °F 87% 29.90 in 5.0 mi WNW 6.9 mph 17.3 mph N/A Rain Rain
6:15 PM 37.4 °F 34.9 °F 35.6 °F 93% 29.89 in 7.0 mi WNW 3.5 mph - N/A Rain Rain
6:35 PM 37.4 °F 33.8 °F 37.4 °F 100% 29.90 in 5.0 mi WSW 4.6 mph - N/A Rain Light Rain
6:55 PM 37.4 °F 34.9 °F 35.6 °F 93% 29.91 in 10.0 mi WSW 3.5 mph - N/A   Overcast
7:15 PM 37.4 °F 33.8 °F 37.4 °F 100% 29.92 in 4.0 mi WSW 4.6 mph - N/A Rain Rain
7:35 PM 37.4 °F 32.8 °F 37.4 °F 100% 29.92 in 7.0 mi WSW 5.8 mph - N/A Rain Rain
7:55 PM 37.4 °F 33.8 °F 37.4 °F 100% 29.92 in 10.0 mi WSW 4.6 mph - N/A   Overcast
8:15 PM 37.4 °F 34.9 °F 37.4 °F 100% 29.93 in 10.0 mi West 3.5 mph - N/A Rain Light Rain
8:35 PM 35.6 °F 28.0 °F 35.6 °F 100% 29.94 in 4.0 mi West 10.4 mph 19.6 mph N/A Rain Rain
8:55 PM 35.6 °F 30.7 °F 33.8 °F 93% 29.95 in 10.0 mi West 5.8 mph - N/A Rain Light Rain
9:15 PM 35.6 °F 31.7 °F 35.6 °F 100% 29.96 in 10.0 mi West 4.6 mph - N/A Rain Rain
9:35 PM 35.6 °F 31.7 °F 35.6 °F 100% 29.96 in 10.0 mi West 4.6 mph - N/A Rain Light Rain
9:55 PM 35.6 °F 29.2 °F 35.6 °F 100% 29.97 in 10.0 mi West 8.1 mph - N/A Rain Light Rain
10:15 PM 35.6 °F 30.7 °F 33.8 °F 93% 29.97 in 10.0 mi West 5.8 mph - N/A Rain Rain
10:35 PM 35.6 °F 29.2 °F 33.8 °F 93% 29.98 in 10.0 mi West 8.1 mph 18.4 mph N/A Rain Light Rain
10:55 PM 35.6 °F 29.9 °F 33.8 °F 93% 29.99 in 10.0 mi West 6.9 mph - N/A   Overcast
11:15 PM 35.6 °F 28.0 °F 33.8 °F 93% 30.00 in 10.0 mi West 10.4 mph 16.1 mph N/A   Overcast
11:35 PM 35.6 °F 31.7 °F 33.8 °F 93% 30.00 in 10.0 mi West 4.6 mph - N/A   Overcast
11:55 PM 35.6 °F 31.7 °F 33.8 °F 93% 30.01 in 10.0 mi West 4.6 mph - N/A   Overcast